Precipitable_Water
0.52 0.58 0.55 0.46 0.26 0.26 0.19 0.19 0.30 0.34 0.51 0.73 0.81 0.75 0.70 0.81 0.67 0.52 1.33 1.50 1.52 1.40 1.35 1.31 1.25 1.31 1.35 1.35 1.25 1.19 1.19 1.17 1.18 1.22 1.24 1.26 1.23 1.20 1.22 1.22 1.24 1.26 1.26 1.24 1.17 1.14 1.15 1.14 1.12
0.50 0.52 0.48 0.36 0.21 0.16 0.15 0.25 0.29 0.34 0.50 0.87 0.88 0.83 0.75 0.70 1.07 1.07 1.17 1.45 1.51 1.52 1.46 1.34 1.28 1.29 1.38 1.38 1.28 1.21 1.20 1.21 1.24 1.25 1.26 1.28 1.26 1.23 1.23 1.24 1.24 1.25 1.25 1.23 1.19 1.12 1.10 1.06 1.04
0.51 0.50 0.34 0.27 0.20 0.14 0.18 0.30 0.32 0.34 0.39 0.61 0.74 0.87 0.78 0.73 1.03 1.14 1.43 1.57 1.62 1.56 1.60 1.54 1.42 1.34 1.36 1.41 1.37 1.28 1.25 1.28 1.28 1.28 1.30 1.31 1.30 1.30 1.27 1.23 1.22 1.24 1.21 1.17 1.12 1.03 0.97 0.95 0.92
0.45 0.42 0.37 0.23 0.17 0.23 0.27 0.30 0.31 0.33 0.40 0.62 0.78 0.70 0.89 1.09 1.10 1.30 1.52 1.60 1.61 1.63 1.68 1.70 1.65 1.52 1.41 1.37 1.34 1.30 1.29 1.29 1.30 1.34 1.35 1.33 1.34 1.34 1.31 1.27 1.21 1.16 1.11 1.05 0.96 0.84 0.70 0.61 0.57
0.47 0.38 0.25 0.21 0.20 0.26 0.30 0.33 0.35 0.32 0.36 0.61 0.77 0.67 0.78 1.13 1.35 1.38 1.42 1.52 1.48 1.60 1.70 1.68 1.68 1.61 1.54 1.42 1.32 1.31 1.31 1.31 1.35 1.38 1.38 1.39 1.40 1.38 1.30 1.22 1.13 1.04 0.97 0.84 0.74 0.67 0.64 0.61 0.60
0.32 0.35 0.21 0.17 0.20 0.26 0.32 0.36 0.36 0.39 0.43 0.60 0.69 0.73 0.82 1.21 1.28 1.37 1.45 1.45 1.53 1.55 1.64 1.68 1.66 1.59 1.58 1.46 1.36 1.37 1.38 1.39 1.41 1.42 1.44 1.45 1.42 1.35 1.23 1.09 0.94 0.83 0.74 0.76 0.75 0.71 0.68 0.63 0.62
0.30 0.28 0.21 0.21 0.21 0.25 0.30 0.34 0.32 0.42 0.50 0.59 0.78 0.59 0.83 1.06 1.31 1.37 1.42 1.42 1.42 1.49 1.56 1.59 1.65 1.67 1.58 1.44 1.41 1.42 1.43 1.44 1.46 1.46 1.42 1.37 1.27 1.17 1.08 0.98 0.82 0.81 0.97 0.78 0.79 0.75 0.69 0.64 0.60
0.33 0.30 0.23 0.23 0.21 0.23 0.30 0.31 0.31 0.42 0.47 0.77 0.87 0.64 0.64 1.00 1.27 1.32 1.35 1.41 1.39 1.37 1.43 1.46 1.54 1.52 1.47 1.46 1.48 1.50 1.49 1.46 1.42 1.40 1.34 1.23 1.12 1.01 0.93 0.96 1.00 0.97 0.84 0.82 0.78 0.74 0.66 0.61 0.57
0.35 0.24 0.21 0.22 0.22 0.26 0.32 0.31 0.34 0.47 0.55 0.67 0.76 0.75 0.90 1.13 1.25 1.22 1.23 1.24 1.29 1.30 1.32 1.38 1.39 1.38 1.39 1.44 1.49 1.48 1.45 1.39 1.34 1.29 1.23 1.11 0.97 0.96 0.99 1.07 1.02 0.88 0.83 0.80 0.77 0.70 0.61 0.54 0.53
0.28 0.23 0.24 0.28 0.29 0.27 0.30 0.31 0.32 0.31 0.40 0.46 0.57 0.72 0.84 0.93 1.00 0.99 0.99 1.01 1.08 1.16 1.24 1.29 1.28 1.29 1.34 1.38 1.35 1.31 1.32 1.29 1.27 1.26 1.15 1.03 1.02 1.02 0.97 0.94 0.85 0.78 0.77 0.75 0.72 0.63 0.56 0.52 0.49
0.33 0.25 0.30 0.31 0.32 0.32 0.30 0.29 0.31 0.27 0.29 0.36 0.33 0.48 0.70 0.83 0.89 0.93 1.00 1.04 1.04 1.13 1.19 1.23 1.29 1.31 1.30 1.29 1.26 1.25 1.22 1.18 1.19 1.19 1.13 1.07 1.04 0.98 0.87 0.81 0.74 0.75 0.74 0.68 0.60 0.54 0.51 0.48 0.46
0.31 0.35 0.34 0.33 0.36 0.34 0.30 0.31 0.29 0.28 0.28 0.34 0.42 0.53 0.66 0.76 0.82 0.87 0.91 0.97 1.01 1.07 1.13 1.19 1.24 1.24 1.22 1.20 1.16 1.13 1.11 1.10 1.12 1.15 1.14 1.04 0.94 0.85 0.80 0.74 0.70 0.68 0.67 0.57 0.53 0.50 0.48 0.46 0.47
0.33 0.34 0.36 0.37 0.37 0.35 0.34 0.30 0.30 0.29 0.33 0.42 0.50 0.57 0.60 0.70 0.79 0.90 0.95 1.00 1.01 0.99 1.05 1.08 1.12 1.10 1.13 1.10 1.07 1.04 1.02 1.02 1.04 1.06 1.01 0.95 0.84 0.75 0.71 0.67 0.66 0.63 0.58 0.52 0.49 0.48 0.46 0.45 0.48
0.35 0.35 0.35 0.36 0.35 0.36 0.32 0.30 0.30 0.31 0.41 0.43 0.46 0.50 0.57 0.64 0.73 0.84 0.86 0.85 0.90 0.98 1.00 1.06 1.03 1.02 1.05 1.01 1.02 0.98 0.96 0.96 0.96 0.94 0.89 0.80 0.75 0.70 0.66 0.64 0.62 0.56 0.51 0.49 0.47 0.46 0.45 0.46 0.52
0.37 0.31 0.33 0.34 0.35 0.33 0.34 0.27 0.27 0.31 0.41 0.41 0.45 0.50 0.57 0.62 0.74 0.73 0.79 0.83 0.89 0.96 1.01 1.01 0.98 1.00 1.01 1.01 1.00 0.94 0.92 0.89 0.85 0.80 0.76 0.72 0.69 0.67 0.66 0.63 0.56 0.50 0.49 0.48 0.48 0.48 0.47 0.51 0.57
0.33 0.32 0.24 0.30 0.34 0.34 0.32 0.24 0.30 0.33 0.38 0.39 0.45 0.47 0.54 0.61 0.65 0.77 0.82 0.87 0.92 0.94 0.97 1.00 0.99 0.99 1.01 1.01 0.97 0.92 0.90 0.85 0.78 0.72 0.71 0.71 0.70 0.69 0.64 0.55 0.49 0.49 0.48 0.48 0.48 0.47 0.47 0.52 0.56
0.31 0.23 0.23 0.27 0.34 0.33 0.32 0.27 0.33 0.33 0.35 0.35 0.44 0.48 0.48 0.55 0.69 0.75 0.79 0.85 0.89 0.92 0.93 0.92 0.93 0.93 0.94 0.97 0.96 0.93 0.90 0.79 0.72 0.72 0.73 0.74 0.71 0.66 0.58 0.52 0.50 0.49 0.47 0.47 0.48 0.47 0.48 0.52 0.58
0.22 0.22 0.25 0.25 0.30 0.33 0.29 0.27 0.31 0.33 0.29 0.28 0.35 0.43 0.49 0.56 0.63 0.74 0.76 0.84 0.91 0.93 0.93 0.92 0.91 0.90 0.92 0.90 0.91 0.93 0.87 0.78 0.73 0.72 0.70 0.68 0.63 0.59 0.54 0.50 0.49 0.48 0.46 0.49 0.50 0.48 0.52 0.56 0.57
0.29 0.27 0.24 0.26 0.30 0.27 0.24 0.22 0.22 0.25 0.27 0.26 0.27 0.34 0.44 0.55 0.71 0.77 0.79 0.81 0.86 0.88 0.88 0.86 0.86 0.87 0.87 0.85 0.84 0.84 0.77 0.73 0.72 0.69 0.67 0.64 0.58 0.54 0.52 0.50 0.49 0.49 0.47 0.50 0.51 0.51 0.51 0.54 0.57
0.27 0.25 0.23 0.25 0.27 0.26 0.21 0.18 0.19 0.18 0.19 0.23 0.26 0.29 0.33 0.47 0.60 0.73 0.75 0.78 0.82 0.81 0.82 0.84 0.85 0.86 0.85 0.85 0.85 0.80 0.75 0.72 0.70 0.67 0.62 0.59 0.56 0.53 0.52 0.52 0.51 0.51 0.50 0.51 0.51 0.49 0.49 0.50 0.53
0.24 0.23 0.22 0.23 0.24 0.24 0.21 0.15 0.17 0.19 0.21 0.23 0.23 0.24 0.27 0.32 0.40 0.56 0.65 0.72 0.79 0.80 0.79 0.82 0.83 0.86 0.85 0.80 0.75 0.73 0.75 0.72 0.69 0.66 0.58 0.55 0.55 0.54 0.54 0.54 0.54 0.52 0.51 0.48 0.47 0.45 0.45 0.41 0.45
0.18 0.23 0.22 0.20 0.18 0.14 0.21 0.13 0.16 0.20 0.21 0.23 0.23 0.23 0.22 0.27 0.34 0.43 0.55 0.66 0.75 0.78 0.84 0.86 0.87 0.84 0.79 0.76 0.68 0.65 0.68 0.65 0.62 0.56 0.53 0.52 0.53 0.53 0.54 0.55 0.53 0.52 0.49 0.46 0.46 0.43 0.38 0.36 0.33
0.22 0.26 0.25 0.24 0.21 0.19 0.15 0.17 0.13 0.17 0.17 0.19 0.22 0.24 0.27 0.33 0.36 0.38 0.46 0.60 0.73 0.78 0.83 0.88 0.90 0.82 0.76 0.71 0.67 0.62 0.59 0.59 0.57 0.53 0.50 0.49 0.51 0.53 0.52 0.51 0.50 0.49 0.49 0.46 0.42 0.37 0.34 0.33 0.30
0.29 0.25 0.23 0.23 0.22 0.16 0.13 0.18 0.13 0.13 0.15 0.18 0.20 0.22 0.28 0.34 0.39 0.43 0.50 0.62 0.71 0.81 0.87 0.91 0.86 0.83 0.78 0.71 0.65 0.59 0.58 0.55 0.51 0.47 0.45 0.45 0.47 0.48 0.50 0.49 0.49 0.48 0.47 0.43 0.39 0.34 0.30 0.29 0.29
0.25 0.23 0.18 0.16 0.16 0.15 0.18 0.20 0.16 0.16 0.20 0.22 0.21 0.24 0.33 0.34 0.41 0.47 0.51 0.57 0.67 0.79 0.85 0.89 0.87 0.82 0.73 0.64 0.64 0.65 0.62 0.58 0.51 0.45 0.45 0.43 0.45 0.46 0.45 0.45 0.45 0.46 0.44 0.40 0.36 0.32 0.28 0.26 0.25
0.23 0.22 0.19 0.16 0.15 0.16 0.20 0.17 0.18 0.24 0.25 0.27 0.30 0.34 0.37 0.35 0.38 0.40 0.50 0.58 0.68 0.81 0.87 0.89 0.84 0.74 0.67 0.65 0.65 0.65 0.63 0.58 0.50 0.48 0.48 0.45 0.43 0.42 0.43 0.44 0.43 0.42 0.40 0.36 0.34 0.31 0.29 0.28 0.26
0.24 0.21 0.25 0.22 0.22 0.21 0.21 0.21 0.25 0.26 0.29 0.33 0.36 0.40 0.40 0.42 0.46 0.50 0.58 0.62 0.75 0.82 0.90 0.84 0.78 0.72 0.70 0.68 0.63 0.61 0.61 0.56 0.50 0.50 0.50 0.45 0.44 0.43 0.43 0.41 0.40 0.40 0.38 0.35 0.33 0.30 0.29 0.29 0.28
0.28 0.29 0.21 0.23 0.19 0.17 0.20 0.21 0.22 0.26 0.31 0.37 0.41 0.47 0.52 0.55 0.55 0.59 0.64 0.74 0.83 0.92 0.87 0.82 0.74 0.68 0.66 0.64 0.61 0.59 0.57 0.55 0.53 0.50 0.49 0.47 0.45 0.43 0.40 0.41 0.40 0.38 0.36 0.35 0.33 0.31 0.31 0.29 0.29
0.27 0.26 0.26 0.27 0.24 0.20 0.18 0.21 0.33 0.35 0.39 0.39 0.46 0.50 0.54 0.60 0.64 0.67 0.70 0.79 0.91 0.82 0.69 0.69 0.71 0.67 0.64 0.61 0.61 0.59 0.56 0.54 0.52 0.49 0.49 0.47 0.46 0.42 0.41 0.42 0.39 0.38 0.36 0.35 0.33 0.31 0.30 0.28 0.27
0.31 0.26 0.26 0.22 0.20 0.22 0.23 0.23 0.39 0.40 0.43 0.46 0.48 0.51 0.58 0.64 0.71 0.74 0.75 0.80 0.76 0.73 0.71 0.70 0.67 0.65 0.63 0.61 0.57 0.55 0.53 0.52 0.49 0.47 0.50 0.48 0.45 0.42 0.43 0.43 0.41 0.40 0.37 0.35 0.32 0.29 0.29 0.28 0.27
Wind_Speed
7 6 6 7 6 5 8 11 10 11 8 9 9 8 8 9 9 11 11 12 14 15 16 16 15 15 15 15 15 16 15 14 13 12 11 10 10 9 9 8 8 8 8 9 9 9 9 10 10
6 6 6 6 6 7 10 9 10 12 10 9 8 9 9 10 11 12 11 12 14 16 16 17 17 17 17 16 16 16 16 16 15 14 13 12 11 11 11 11 10 10 10 10 10 10 10 10 11
5 5 5 5 6 7 9 9 13 15 17 15 12 11 12 12 13 13 14 14 16 18 19 19 19 19 19 18 17 17 18 17 16 15 14 14 13 13 13 13 13 12 12 11 11 11 11 11 11
4 5 6 6 10 10 10 15 19 19 14 13 13 11 14 14 13 14 14 15 17 19 20 21 21 20 20 20 19 19 19 18 17 17 16 15 15 14 15 14 14 14 13 12 12 12 12 12 12
4 5 6 7 10 10 11 16 18 17 12 11 13 13 13 13 12 11 12 13 14 16 19 20 20 20 20 20 20 20 19 19 18 17 17 16 16 16 16 16 16 15 14 13 12 12 12 12 13
5 5 6 8 10 11 11 11 12 10 9 10 12 12 13 13 12 12 11 11 12 13 15 17 18 19 20 19 20 20 20 19 19 18 18 17 17 16 16 16 16 16 14 13 13 12 12 12 12
5 6 8 9 10 10 10 12 13 11 10 12 11 12 13 14 13 12 12 11 11 13 14 15 17 19 19 19 20 19 19 19 19 18 18 17 17 16 15 15 16 17 17 14 12 12 12 12 13
7 7 9 10 9 12 12 15 14 13 13 12 12 14 15 15 14 12 12 13 13 13 14 15 16 17 18 19 19 19 20 19 19 19 19 18 17 16 16 16 21 20 15 14 13 13 13 13 13
9 9 11 12 11 13 15 15 16 14 12 14 15 16 16 13 14 14 15 15 16 16 15 15 16 17 18 18 19 20 20 20 20 19 19 18 18 17 17 15 11 11 13 13 14 14 14 13 13
10 10 14 12 15 18 20 19 20 16 15 16 16 16 14 15 16 17 17 17 17 18 17 17 17 19 19 20 19 20 20 20 20 20 20 20 19 19 17 16 13 12 13 14 14 14 14 13 13
14 16 17 17 17 18 19 20 19 19 19 20 19 18 17 17 18 18 18 18 18 18 19 19 19 19 19 20 20 20 20 21 21 21 21 21 20 19 17 16 15 15 15 15 15 14 14 13 14
17 19 20 19 19 21 20 21 22 21 23 24 23 20 19 19 20 20 19 19 19 19 20 20 20 20 20 21 21 21 22 22 23 23 23 22 21 19 18 17 17 16 16 16 15 15 14 15 15
19 20 20 23 25 24 24 25 25 26 25 22 20 20 21 21 22 22 21 20 20 20 21 21 21 22 22 22 22 22 23 23 23 23 22 22 21 20 19 18 18 17 17 16 16 16 16 17 17
19 22 24 24 23 23 23 25 24 25 26 25 23 23 23 23 23 22 23 23 23 22 22 23 24 24 23 23 23 23 22 22 22 22 21 21 21 20 20 19 18 18 17 16 16 17 18 18 19
22 24 24 24 22 21 21 23 22 25 24 23 25 25 24 23 23 24 23 22 23 23 23 23 24 25 25 25 24 24 23 22 22 21 21 21 21 20 20 20 19 18 18 17 17 18 19 19 19
23 22 20 20 18 19 19 22 24 22 22 25 26 25 26 26 26 23 23 23 23 22 23 23 24 26 27 27 26 24 24 23 22 22 21 21 21 21 20 20 19 19 19 19 19 20 20 21 21
21 22 23 23 20 22 22 25 26 25 24 25 26 28 28 28 28 26 25 25 24 24 23 23 23 24 25 26 25 25 24 24 23 22 22 22 22 21 21 20 19 19 19 20 20 21 22 21 22
22 22 23 24 22 25 26 29 28 28 26 27 28 29 29 30 32 30 27 27 26 25 24 24 23 23 23 24 25 24 24 24 23 23 23 22 22 21 21 20 20 20 20 20 21 22 22 22 22
21 23 26 27 25 26 27 29 29 27 28 29 28 28 29 32 31 31 30 29 27 27 26 25 24 24 24 24 24 24 24 24 24 23 23 22 22 21 21 21 21 21 21 21 22 22 22 22 22
23 25 27 28 26 25 29 35 32 29 28 29 31 31 32 31 32 34 33 32 30 27 27 27 26 25 24 24 24 24 24 24 23 23 22 22 22 21 21 21 21 21 22 22 22 23 23 23 24
21 21 24 28 26 28 29 38 30 28 27 26 29 31 32 32 32 34 33 32 31 30 29 29 27 25 26 25 24 23 24 24 24 23 23 22 22 22 21 22 22 22 22 22 22 23 23 23 22
23 23 26 27 27 30 22 31 37 29 32 28 26 27 29 29 31 32 33 34 34 33 32 31 29 27 26 25 24 23 23 23 24 23 22 21 21 21 21 20 21 21 21 20 20 21 21 21 21
31 27 28 28 28 25 30 23 32 22 27 28 32 30 30 31 32 34 35 36 36 35 34 32 31 28 26 25 24 22 22 22 22 22 22 21 21 21 20 20 20 20 20 19 19 19 20 20 21
30 30 31 30 27 29 40 25 34 34 29 30 32 32 29 30 32 33 33 34 35 35 34 32 31 30 28 25 24 23 20 20 21 21 21 21 20 20 20 20 19 18 18 18 18 18 18 18 18
28 25 26 25 24 32 33 28 39 37 33 37 37 36 31 29 29 31 31 33 35 36 35 32 32 32 30 26 23 23 22 21 21 21 21 20 20 19 19 18 18 17 17 17 17 17 17 17 17
28 27 26 26 30 36 33 32 34 35 38 38 36 34 36 37 34 34 34 33 34 36 35 33 32 33 30 28 24 23 22 21 21 21 20 20 20 19 18 18 17 16 16 16 17 17 16 16 16
33 33 34 39 41 38 41 43 43 41 37 36 36 35 36 34 32 30 31 33 34 36 35 32 30 30 28 27 23 24 23 22 21 20 21 21 20 19 18 17 17 16 16 16 16 16 16 16 15
37 36 37 33 34 42 34 33 32 30 30 29 29 30 31 30 29 27 27 29 32 33 30 28 28 27 25 23 22 24 24 23 22 22 21 21 20 19 18 18 17 17 16 16 16 16 15 15 15
36 37 34 34 32 35 39 38 34 32 31 30 29 28 29 29 29 28 26 26 30 23 21 23 25 24 23 23 23 23 23 23 23 22 22 21 21 20 19 18 17 17 16 17 16 16 15 15 15
49 49 47 41 43 41 40 39 37 33 31 29 28 26 23 24 27 26 27 28 28 25 23 22 22 22 22 21 21 22 23 22 22 22 22 22 21 21 20 19 18 17 17 17 17 16 15 15 14
Wind_Direction
290 277 274 284 283 278 267 267 269 286 294 279 270 262 253 265 261 265 270 240 225 224 226 227 225 223 222 223 224 222 222 222 222 224 228 234 240 247 253 261 270 277 282 284 286 288 293 296 300
294 282 282 280 274 273 273 266 267 271 287 264 264 267 279 274 272 269 265 241 231 228 229 231 231 227 226 226 227 224 223 222 225 228 233 239 244 249 254 259 268 274 279 283 283 285 289 294 298
303 287 291 282 272 254 257 265 281 281 287 258 261 277 274 272 273 268 260 241 238 235 234 235 234 232 230 230 229 226 225 225 228 232 235 241 246 251 255 260 265 270 277 279 281 281 284 290 296
294 307 304 290 274 272 263 281 291 290 285 258 259 273 278 280 270 266 255 247 244 242 238 237 236 234 231 231 231 228 227 228 231 234 237 243 249 253 257 261 263 267 273 274 276 280 282 287 293
304 306 298 296 287 281 282 285 294 287 273 262 260 267 277 280 274 266 253 246 244 240 236 235 232 231 231 230 230 230 228 229 232 236 240 245 250 255 259 261 262 263 267 270 274 278 281 286 291
303 304 307 292 286 285 291 292 303 299 279 268 271 274 275 270 269 261 251 246 243 237 234 232 232 231 229 227 227 227 228 231 234 238 242 247 251 256 260 263 261 260 261 267 270 275 281 287 292
271 294 283 288 289 292 288 307 303 300 289 276 267 275 280 264 261 257 248 248 246 240 237 236 235 227 226 225 226 227 229 232 235 239 243 246 251 254 260 264 263 261 265 261 266 274 281 286 291
275 282 288 291 287 282 290 307 303 290 288 284 279 277 278 259 250 250 249 250 250 244 240 238 231 227 227 227 227 228 231 234 237 240 243 245 249 253 256 273 266 254 253 256 264 274 281 286 290
271 282 287 291 286 279 292 297 299 296 290 287 284 282 283 251 247 250 253 254 250 245 243 240 233 230 229 229 232 233 234 236 238 240 243 246 249 254 259 270 263 242 245 256 265 273 280 284 287
273 269 272 275 286 284 286 289 290 286 287 284 284 286 272 255 252 253 252 252 247 244 242 242 238 235 235 235 235 236 237 239 241 242 245 248 251 255 259 259 252 249 252 261 267 273 277 281 285
272 271 274 277 281 285 287 291 286 284 284 281 278 273 266 259 252 253 253 249 248 244 243 242 242 240 239 237 238 239 241 244 245 245 247 249 253 254 253 252 255 254 259 264 268 272 275 279 284
279 275 276 279 279 285 283 287 286 282 282 285 281 271 263 257 253 250 250 250 248 245 244 243 242 240 241 240 242 243 245 248 248 249 250 250 252 251 251 252 255 257 261 264 267 269 272 278 283
274 279 277 280 281 278 280 278 281 281 283 283 275 267 261 256 255 251 251 250 248 247 245 245 244 243 244 243 246 247 250 250 250 250 250 249 249 249 249 252 255 258 259 262 264 268 273 279 283
280 282 283 282 279 277 276 281 279 281 279 274 267 262 261 256 252 253 252 251 250 248 249 249 247 246 246 246 247 249 250 251 251 250 248 246 246 247 249 252 254 257 258 260 264 268 274 278 282
282 284 284 279 278 278 281 288 282 288 277 270 265 262 260 255 252 254 253 250 248 250 250 249 249 248 248 247 248 250 250 251 250 248 246 244 245 247 249 251 253 255 258 262 266 271 275 278 281
287 284 282 281 278 276 278 279 286 290 282 271 265 264 260 257 257 256 252 248 247 252 251 252 253 251 250 247 247 248 249 249 248 247 245 245 246 248 249 250 252 255 259 263 266 271 275 277 280
282 279 277 283 275 277 276 281 283 289 280 277 269 265 262 260 256 254 253 249 249 249 250 253 256 252 247 245 245 247 248 248 247 246 246 246 248 249 248 250 253 257 260 264 268 272 274 277 280
277 278 278 279 281 278 280 279 282 281 280 276 271 265 262 260 256 253 253 250 249 248 249 251 253 250 245 245 244 246 247 247 247 246 246 246 247 248 248 251 254 258 261 265 270 275 276 277 280
279 280 279 280 280 280 278 282 281 279 277 277 273 269 266 263 261 257 254 251 249 248 248 247 248 247 244 244 243 245 246 245 246 246 245 246 246 247 248 252 256 260 264 267 271 275 276 277 278
278 279 281 286 283 278 285 283 279 277 274 270 271 270 267 266 261 257 253 252 249 246 246 245 245 246 245 246 246 245 243 244 245 245 246 246 247 248 251 254 258 262 267 270 272 274 275 276 277
278 278 284 282 288 285 287 284 280 277 273 270 271 270 267 262 259 256 253 251 248 246 244 242 242 244 246 246 245 244 244 244 246 245 246 247 247 249 252 255 260 264 267 270 273 274 274 276 279
282 279 282 286 287 285 283 286 282 278 274 273 271 271 269 262 259 258 254 250 246 245 244 242 243 244 245 242 243 240 243 243 243 243 244 246 247 250 252 255 260 265 269 271 273 276 275 275 276
282 283 283 283 281 286 276 274 280 287 281 279 280 275 271 264 261 257 254 250 246 244 241 242 242 242 238 239 237 239 239 242 238 239 242 245 248 251 253 257 261 265 267 270 273 276 277 276 277
284 286 284 280 275 272 276 265 277 278 279 282 282 279 273 271 265 259 255 249 244 242 239 241 238 238 236 234 234 234 237 238 237 238 239 242 246 250 254 257 260 262 266 270 274 277 278 279 278
279 284 284 282 274 271 280 267 269 282 281 280 279 276 273 276 269 261 254 248 243 238 238 237 235 237 231 229 230 234 237 236 236 236 238 239 244 249 252 254 257 261 266 270 274 276 278 278 278
282 277 276 280 279 280 280 273 276 280 284 283 277 274 274 277 271 262 255 248 239 234 234 233 236 226 224 226 232 233 232 235 235 236 238 241 245 247 249 252 256 261 266 271 274 275 277 278 278
288 277 279 275 276 276 274 276 279 281 284 284 281 277 277 275 272 265 255 246 236 230 228 228 225 224 224 229 231 230 230 231 234 237 241 242 244 244 246 249 256 261 266 270 274 275 275 276 278
277 283 283 279 277 274 275 275 275 282 283 284 282 281 280 275 267 257 252 242 229 217 214 220 225 227 225 227 229 229 229 232 235 239 241 241 240 242 244 250 256 261 265 269 272 274 274 274 276
288 283 281 281 277 277 278 275 274 277 275 278 279 283 282 274 262 256 245 231 216 223 226 228 230 227 229 232 232 230 230 232 236 239 240 238 239 240 244 249 255 260 265 269 270 271 271 273 274
278 277 276 274 276 272 275 274 274 274 273 275 279 279 279 274 261 250 241 231 228 231 230 226 223 224 227 231 232 230 230 234 237 237 236 236 237 240 244 249 254 260 265 267 267 267 268 270 270